Overview Statistics Trail Chart Weather Telemetry Raw packets
 

This is the latest recevied weather packets stored in our database for station/object OK1FET-5. If no packets are shown the sender has not sent any weather packets the latest 10 day(s).

<< 47 48 49 50 51 52 53 >>
Time Temp. Humidity Pressure Rain* Wind** Luminosity Snow
1787816349 21.67° C 59% 1021.2 hPa - - - -
1787815752 21.67° C 55% 1021.2 hPa - - - -
1787814561 21.11° C 56% 1021.2 hPa - - - -
1787813369 21.11° C 57% 1021.2 hPa - - - -
1787812774 20° C 59% 1021.3 hPa - - - -
1787812178 20° C 61% 1021.5 hPa - - - -
1787811582 19.44° C 61% 1021.4 hPa - - - -
1787810390 18.33° C 65% 1021.2 hPa - - - -
1787809199 18.33° C 65% 1021.2 hPa - - - -
1787808603 17.78° C 66% 1021.2 hPa - - - -
1787808007 17.78° C 66% 1021.2 hPa - - - -
1787807411 17.78° C 67% 1021.2 hPa - - - -
1787806816 17.22° C 69% 1021.3 hPa - - - -
1787806220 16.11° C 70% 1021.3 hPa - - - -
1787805624 15.56° C 72% 1021.3 hPa - - - -
1787804433 15° C 74% 1021.1 hPa - - - -
1787803837 15° C 75% 1021 hPa - - - -
1787803241 15° C 75% 1020.9 hPa - - - -
1787802645 14.44° C 76% 1020.8 hPa - - - -
1787802050 15° C 75% 1020.9 hPa - - - -
1787801454 15° C 75% 1020.9 hPa - - - -
1787800858 15° C 75% 1020.9 hPa - - - -
1787799666 15° C 75% 1020.9 hPa - - - -
1787798475 14.44° C 75% 1021 hPa - - - -
1787797284 15° C 74% 1021 hPa - - - -

* Rain since midnight (hover to see other rain measurements)
** Current wind speed in m/s (hover to see current wind gust speed)